Main page
METAR-TAF:

METAR-TAF

Airports :

Albertus Airport

Freeport, Illinois, United States

latitude: 42-14-47N, longitude: 089-34-56W, elevation: 859 ft

Current weather observation

The report was made 28 minutes ago, at 22:55 UTC
Wind 12 mph from the North with gusts up to 16 mph
Temperature 75°F
Humidity 50%
Pressure 30.08 in. Hg
Visibility: 10 miles
Clear sky

METAR: KFEP 172255Z AUTO 36010G14KT 10SM CLR 24/13 A3008 RMK AO2 T02370125

Time: 18:23 (23:23 UTC)


TAF: missing

Weather observations and forecasts of more than 4000 airports (METAR and TAF reports).

The available stations are represented by yellow and red dots on the map.

Hover mouse over dot to see the name of the station.

Then click to see weather observations and forecasts.

To change the map : click on the green buttons with a black cross to zoom in, on the green button with a dash to zoom out, or on the green arrows for adjacent maps.


METAR-TAF: